Visibility
15.0 15.0 15.0 15.0 15.0 15.0 15.0 15.0 15.0 15.0 15.0 15.0 15.0 15.0 15.0 15.0 15.0 15.0 15.0 15.0 15.0 15.0
15.0 15.0 15.0 15.0 15.0 15.0 15.0 15.0 15.0 15.0 15.0 15.0 15.0 15.0 15.0 15.0 15.0 15.0 15.0 15.0 15.0 15.0
15.0 15.0 15.0 15.0 15.0 15.0 15.0 15.0 15.0 15.0 15.0 15.0 15.0 15.0 15.0 15.0 15.0 15.0 15.0 15.0 15.0 15.0
15.0 15.0 15.0 15.0 15.0 15.0 15.0 15.0 15.0 15.0 15.0 15.0 15.0 15.0 15.0 15.0 15.0 15.0 15.0 15.0 15.0 15.0
15.0 15.0 15.0 15.0 15.0 15.0 15.0 15.0 15.0 15.0 15.0 15.0 15.0 15.0 15.0 15.0 15.0 15.0 15.0 15.0 15.0 15.0
15.0 15.0 15.0 15.0 15.0 15.0 15.0 15.0 15.0 15.0 5.1 15.0 15.0 15.0 15.0 4.9 15.0 15.0 15.0 15.0 15.0 15.0
15.0 15.0 15.0 15.0 15.0 15.0 15.0 15.0 15.0 15.0 15.0 15.0 7.8 10.5 15.0 15.0 15.0 15.0 15.0 15.0 15.0 15.0
15.0 15.0 15.0 15.0 15.0 15.0 15.0 15.0 15.0 15.0 15.0 15.0 15.0 15.0 15.0 15.0 15.0 15.0 15.0 15.0 15.0 15.0
15.0 15.0 15.0 15.0 15.0 15.0 15.0 15.0 15.0 15.0 15.0 15.0 15.0 15.0 15.0 15.0 15.0 15.0 15.0 15.0 15.0 14.8
4.7 15.0 15.0 15.0 15.0 15.0 15.0 15.0 15.0 15.0 15.0 15.0 10.1 0.1 0.1 13.6 15.0 15.0 15.0 15.0 7.9 15.0
12.2 13.5 15.0 4.7 14.2 15.0 15.0 15.0 8.9 6.8 6.8 0.0 0.1 0.1 0.1 5.9 15.0 15.0 15.0 10.0 15.0 15.0
2.1 2.7 6.0 7.9 3.1 15.0 3.0 0.0 0.0 0.0 0.1 0.1 0.1 0.1 0.1 0.1 4.5 15.0 15.0 15.0 15.0 15.0
15.0 4.5 1.6 0.2 0.0 0.0 0.0 0.0 0.1 0.1 0.2 0.5 0.2 0.4 0.1 0.1 7.7 15.0 15.0 15.0 15.0 15.0
0.2 0.1 0.1 0.1 0.1 0.1 0.1 0.1 0.1 0.1 3.1 3.5 14.5 0.5 0.1 0.6 13.8 15.0 10.2 9.7 0.2 1.8